Wind_Speed
65 67 67 65 65 61 62 61 64 66 63 64 62 61 57 47 50 49 46 52 55 48 48 46 46 47 47 45 44 42 42 47 48 44 48 51 48 44 40 42 39 40 34
57 63 68 66 69 67 61 60 61 64 65 60 60 64 59 57 54 49 44 49 49 45 47 46 45 46 47 47 46 43 41 42 48 50 54 55 50 46 45 40 41 37 32
45 51 58 61 60 60 56 64 64 63 62 62 60 65 63 55 50 49 48 50 47 45 45 45 45 45 45 46 45 43 40 38 42 46 47 56 53 53 49 40 37 34 32
36 45 47 51 49 51 54 62 68 64 60 60 60 61 53 48 47 44 45 48 48 43 43 43 44 44 42 42 43 43 42 40 40 46 45 43 48 52 39 38 36 35 29
39 43 55 50 47 45 48 57 61 62 59 63 58 59 57 55 48 37 36 34 40 42 41 41 41 42 43 43 41 41 40 39 42 43 45 47 42 40 45 40 37 33 32
36 38 46 47 42 45 45 45 54 58 41 43 51 66 65 60 50 34 30 30 34 38 41 42 41 41 41 41 41 40 40 39 40 41 43 43 40 40 44 42 33 27 33
36 35 35 44 42 44 45 49 57 46 40 39 45 55 59 61 43 37 32 32 33 31 35 38 40 40 40 40 41 40 40 40 40 39 37 42 44 43 38 40 34 27 34
37 34 35 39 41 43 44 45 48 50 48 45 42 39 37 40 42 40 38 37 36 33 29 27 30 35 38 40 40 40 39 40 39 39 34 39 40 38 36 37 32 29 34
44 41 40 41 45 50 49 50 51 49 48 47 42 43 40 37 41 45 45 44 40 39 36 33 31 29 30 33 35 36 38 38 38 38 34 35 41 37 38 38 32 35 31
45 46 47 45 46 46 47 47 48 50 53 48 46 45 47 44 45 46 50 49 48 41 39 33 33 33 33 31 32 34 34 35 36 34 36 30 42 38 39 33 30 28 29
34 43 46 52 52 49 53 56 57 57 56 57 52 49 45 45 45 48 52 52 48 43 42 36 30 28 31 36 33 32 33 32 31 34 31 30 40 39 32 35 33 34 29
30 35 41 46 50 56 59 59 57 57 61 64 64 60 56 51 52 50 51 50 48 49 47 43 35 31 29 33 36 34 33 30 30 35 32 34 38 38 36 30 29 32 23
33 31 36 40 44 49 51 55 61 60 60 65 68 69 63 63 57 57 55 59 58 53 53 54 43 39 37 32 34 37 35 29 30 33 31 32 42 35 39 32 28 26 19
33 33 35 38 41 45 48 52 56 58 58 57 59 67 68 67 65 61 58 64 65 60 55 54 52 47 40 37 33 37 37 31 31 32 29 34 37 35 36 29 26 28 22
30 31 33 38 39 42 46 48 50 53 57 60 62 64 64 63 60 59 57 58 62 61 57 54 50 44 44 38 35 35 35 33 29 28 36 27 32 32 31 28 24 27 27
26 25 29 34 35 38 46 49 47 49 55 58 56 58 59 59 62 61 61 58 58 57 57 56 53 50 45 39 37 31 34 30 27 32 29 28 24 24 26 24 27 28 19
20 18 27 24 38 33 34 35 36 38 42 40 45 60 55 52 53 52 56 57 59 59 60 56 53 48 40 37 30 29 31 29 30 31 26 22 17 13 22 22 21 20 16
24 24 26 29 33 36 40 39 44 40 35 41 46 44 51 58 53 46 48 53 57 56 57 47 45 41 37 33 27 30 32 31 30 32 19 17 12 14 18 17 20 17 17
25 24 22 21 21 24 26 26 27 34 36 38 39 38 46 48 49 53 48 48 49 52 52 51 45 42 38 34 30 31 33 31 28 25 18 16 21 23 19 20 19 17 15
24 19 19 16 12 17 25 28 30 30 30 33 32 26 36 42 37 38 44 41 41 44 42 40 40 41 39 34 33 35 36 32 31 26 19 22 18 21 22 19 18 17 15
36 26 18 14 14 22 10 6 13 20 28 30 25 26 30 35 39 30 28 27 32 41 37 33 38 39 39 38 37 36 34 29 28 25 25 27 25 24 21 20 19 15 15
37 35 28 17 21 29 23 18 20 25 33 28 24 33 32 34 33 30 30 25 33 32 33 39 40 40 39 39 37 35 28 29 24 22 26 21 24 21 20 19 16 16 16
36 36 33 32 25 27 36 36 34 33 26 23 24 35 32 28 24 25 29 39 34 32 37 38 37 38 38 39 34 32 31 28 26 34 26 29 24 21 18 17 16 17 15
35 40 37 40 34 30 28 34 36 34 31 30 30 30 32 36 39 42 39 37 39 43 43 42 40 38 35 36 35 28 28 30 36 26 26 24 20 18 17 17 17 15 16
33 36 41 47 52 50 40 35 35 38 40 47 51 52 53 53 52 50 48 46 46 44 42 37 33 32 32 28 24 22 26 29 30 26 24 21 18 17 17 16 14 15 15
26 35 37 41 45 52 54 58 58 57 55 53 53 54 53 51 49 48 44 40 38 39 38 30 28 26 25 32 29 27 27 26 24 21 18 16 17 17 14 13 13 12 13
Wind_Direction
257 257 255 253 248 246 246 247 248 249 246 247 250 243 243 254 262 259 261 263 263 255 246 248 248 247 250 254 258 259 259 257 258 253 258 249 262 259 265 274 277 279 282
257 257 255 251 250 247 246 249 247 249 250 251 246 251 259 258 257 257 255 261 262 254 245 243 246 248 250 252 252 252 255 258 253 252 251 251 253 259 260 267 272 273 277
260 254 251 251 251 249 246 242 244 247 247 247 245 243 248 247 253 256 254 262 260 253 244 241 239 241 244 247 251 255 257 262 262 259 254 256 255 252 249 259 263 273 263
272 251 244 250 246 244 241 246 242 245 250 249 246 246 243 246 249 255 256 259 258 248 238 236 237 239 242 245 249 252 255 255 257 260 260 259 260 264 247 254 254 275 264
273 266 248 243 239 227 236 237 242 244 246 251 253 247 254 253 253 254 247 248 252 245 237 235 237 239 240 242 245 248 252 255 254 258 264 265 266 255 249 253 247 255 266
278 269 253 249 234 242 243 225 247 248 245 255 252 248 249 248 254 245 244 245 248 245 243 239 239 241 242 245 246 250 254 255 258 261 258 258 261 252 247 237 238 252 261
270 270 252 243 236 237 239 242 246 252 251 253 246 239 243 247 233 237 238 243 244 245 245 244 242 243 245 246 248 251 254 256 259 260 262 265 265 261 254 234 235 245 255
268 264 251 244 241 238 233 239 250 253 248 244 243 241 232 230 237 239 237 239 241 237 233 240 244 245 244 246 248 250 253 255 258 259 262 266 274 268 246 232 240 236 255
259 259 256 248 244 244 249 252 244 250 249 247 246 237 242 245 240 242 242 243 241 237 238 231 235 237 241 243 245 248 249 254 256 259 260 264 275 254 234 236 245 243 249
259 253 248 247 245 243 244 245 245 249 246 245 242 239 239 243 244 243 244 246 248 241 243 236 231 235 237 239 243 245 249 251 256 257 259 267 274 239 235 232 231 237 241
264 259 252 247 246 244 244 244 246 245 242 240 238 236 237 237 242 244 247 246 246 241 241 241 242 244 238 238 241 245 249 252 256 257 256 264 262 231 229 227 218 228 231
275 262 257 249 248 246 246 245 246 245 244 238 238 237 237 235 242 244 242 239 239 243 240 239 248 246 256 244 239 242 250 250 253 255 258 262 258 228 216 218 218 218 211
279 266 257 255 251 249 249 249 248 248 246 242 240 239 238 241 240 236 238 241 243 243 240 240 250 251 258 253 240 239 246 248 250 254 262 266 238 226 207 207 216 220 208
274 269 262 256 252 249 247 246 246 246 246 245 244 243 244 246 244 241 237 236 240 240 237 240 247 248 251 251 241 235 240 242 250 257 264 269 248 208 206 194 199 218 216
274 273 270 262 259 255 254 252 249 247 246 244 242 242 242 242 243 239 235 235 235 236 237 238 240 240 251 246 237 232 238 240 251 251 264 223 210 191 195 201 213 224 236
286 279 271 274 278 269 263 261 259 252 246 242 241 240 240 241 241 239 239 234 231 234 233 234 236 244 243 237 233 228 234 237 244 250 250 193 188 198 186 207 226 241 213
290 285 273 268 271 276 264 270 258 251 251 251 246 239 236 234 235 234 233 233 230 230 231 231 234 235 224 221 221 222 232 233 236 246 237 182 186 198 209 238 235 201 205
311 296 275 286 276 268 263 257 249 245 240 244 230 229 229 232 232 229 227 225 225 222 223 225 226 224 211 224 216 214 221 225 227 250 222 189 205 193 217 218 199 200 213
330 323 315 305 296 285 276 268 250 242 241 233 226 222 221 220 223 223 223 223 223 225 225 225 221 213 221 224 215 215 215 218 230 240 217 196 195 206 214 198 197 203 214
360 337 345 337 317 315 288 270 255 242 231 207 206 217 215 211 211 204 213 219 220 219 213 217 216 213 213 203 203 205 207 210 218 227 183 173 186 205 193 198 207 211 220
8 15 8 12 359 353 336 262 223 198 191 195 201 193 188 187 182 193 198 203 207 209 203 204 194 188 184 189 198 200 208 210 227 189 180 170 199 195 196 206 210 217 228
25 24 30 40 41 37 51 83 124 143 147 151 154 171 163 164 172 177 187 190 176 177 182 177 173 171 180 188 192 193 200 214 190 180 174 186 195 200 203 210 215 223 231
47 42 38 44 60 59 70 80 110 128 135 141 149 157 156 162 172 172 157 153 161 156 157 160 166 173 178 180 185 194 200 210 180 170 186 193 202 204 208 215 220 225 229
64 61 66 71 67 72 85 93 102 109 114 119 126 136 136 135 134 136 140 147 149 149 152 159 165 170 175 178 182 201 214 196 170 186 182 194 202 206 211 218 220 223 236
69 70 72 79 86 87 87 90 101 111 115 119 122 125 125 127 131 137 140 142 144 147 151 155 158 166 178 197 167 163 172 179 175 175 187 192 199 210 213 212 219 235 242
81 70 74 75 84 87 89 92 94 95 101 109 114 117 119 120 123 126 131 133 135 137 140 156 172 170 152 147 151 154 158 164 172 177 182 196 203 202 204 217 225 222 219
Height
5640 5640 5641 5645 5648 5652 5655 5657 5658 5661 5664 5669 5675 5674 5674 5680 5687 5691 5693 5695 5698 5705 5707 5711 5714 5717 5720 5723 5725 5728 5732 5733 5734 5742 5743 5748 5751 5754 5756 5758 5760 5760 5757
5623 5622 5622 5626 5630 5635 5639 5641 5643 5647 5651 5656 5662 5662 5665 5672 5676 5679 5681 5683 5685 5690 5694 5697 5701 5704 5708 5711 5715 5718 5720 5723 5723 5729 5733 5737 5740 5742 5746 5749 5750 5749 5749
5603 5604 5605 5607 5611 5616 5621 5625 5628 5632 5636 5641 5646 5651 5656 5661 5664 5666 5668 5670 5672 5675 5680 5684 5688 5692 5697 5701 5704 5706 5707 5709 5711 5715 5722 5723 5728 5731 5735 5739 5741 5740 5741
5589 5590 5591 5594 5597 5598 5605 5610 5613 5618 5623 5627 5632 5637 5641 5646 5651 5654 5656 5658 5660 5663 5667 5672 5677 5681 5685 5690 5694 5697 5699 5702 5704 5705 5710 5714 5717 5720 5723 5728 5731 5731 5733
5577 5578 5579 5579 5586 5587 5592 5596 5600 5605 5610 5615 5619 5625 5631 5636 5640 5644 5644 5647 5650 5652 5656 5661 5666 5671 5675 5679 5683 5687 5690 5692 5696 5698 5701 5703 5707 5710 5714 5717 5721 5722 5725
5565 5563 5563 5568 5573 5577 5579 5581 5589 5591 5596 5599 5602 5609 5615 5622 5627 5632 5634 5636 5639 5643 5646 5650 5655 5661 5665 5669 5673 5677 5681 5683 5686 5689 5692 5694 5697 5699 5702 5707 5711 5714 5717
5555 5555 5555 5557 5563 5568 5571 5575 5579 5583 5584 5588 5592 5595 5601 5608 5616 5622 5625 5628 5631 5634 5637 5641 5645 5649 5654 5659 5663 5668 5671 5674 5677 5680 5684 5686 5687 5689 5692 5698 5701 5705 5709
5544 5545 5546 5549 5552 5556 5559 5564 5568 5571 5575 5580 5583 5587 5591 5597 5602 5610 5615 5619 5624 5627 5630 5635 5639 5642 5646 5650 5655 5658 5661 5665 5667 5670 5675 5676 5677 5679 5684 5688 5693 5696 5700
5529 5532 5534 5535 5539 5542 5546 5550 5554 5558 5562 5567 5570 5576 5581 5586 5592 5598 5603 5608 5614 5619 5624 5626 5631 5635 5638 5642 5646 5650 5653 5655 5658 5662 5665 5667 5668 5671 5675 5680 5685 5688 5692
5514 5515 5516 5519 5522 5526 5531 5535 5539 5543 5547 5552 5558 5563 5569 5575 5580 5587 5591 5596 5603 5610 5615 5619 5622 5627 5629 5633 5638 5642 5645 5647 5650 5653 5655 5658 5657 5662 5666 5672 5676 5680 5684
5501 5500 5501 5503 5507 5511 5515 5519 5523 5528 5532 5539 5545 5551 5556 5563 5568 5575 5580 5585 5592 5598 5604 5609 5612 5617 5621 5625 5629 5634 5636 5640 5643 5645 5647 5650 5650 5654 5659 5663 5667 5672 5675
5489 5487 5487 5489 5491 5494 5497 5502 5505 5509 5514 5520 5528 5535 5542 5548 5557 5563 5568 5573 5580 5586 5592 5598 5602 5608 5613 5616 5621 5625 5629 5633 5634 5635 5640 5641 5642 5646 5651 5654 5660 5664 5667
5476 5476 5475 5475 5476 5477 5480 5483 5486 5490 5495 5503 5507 5515 5523 5532 5540 5548 5556 5560 5566 5574 5580 5587 5593 5599 5605 5607 5613 5617 5621 5625 5626 5628 5631 5632 5633 5637 5643 5649 5655 5658 5662
5465 5462 5461 5461 5461 5462 5463 5465 5468 5472 5477 5483 5489 5497 5505 5513 5521 5530 5538 5545 5551 5559 5568 5575 5583 5589 5593 5598 5604 5608 5612 5617 5619 5621 5623 5623 5626 5631 5637 5641 5647 5652 5655
5453 5451 5450 5448 5448 5448 5447 5448 5450 5454 5458 5464 5471 5476 5484 5493 5503 5512 5522 5530 5537 5546 5556 5563 5571 5578 5583 5589 5595 5601 5604 5610 5613 5614 5614 5615 5621 5627 5629 5634 5641 5646 5650
5442 5440 5438 5436 5434 5432 5430 5430 5432 5435 5439 5444 5451 5457 5465 5474 5482 5492 5503 5514 5524 5531 5539 5549 5559 5566 5573 5580 5586 5593 5596 5603 5605 5605 5605 5610 5615 5618 5623 5630 5636 5640 5644
5436 5433 5429 5424 5421 5418 5415 5415 5417 5418 5421 5425 5431 5440 5448 5458 5466 5476 5487 5497 5508 5517 5522 5535 5546 5555 5563 5571 5578 5585 5589 5595 5598 5600 5600 5605 5609 5614 5621 5626 5630 5635 5641
5430 5424 5418 5412 5406 5401 5399 5398 5398 5400 5403 5408 5415 5423 5431 5443 5454 5464 5474 5483 5490 5499 5511 5526 5536 5545 5556 5565 5572 5578 5584 5588 5592 5594 5595 5601 5606 5612 5618 5624 5629 5633 5637
5423 5414 5406 5399 5393 5388 5383 5381 5382 5386 5390 5396 5402 5410 5418 5429 5440 5451 5461 5469 5480 5491 5505 5518 5528 5538 5549 5558 5565 5572 5577 5583 5587 5589 5591 5599 5606 5612 5617 5621 5625 5629 5633
5418 5408 5399 5392 5386 5378 5369 5364 5364 5368 5376 5386 5395 5403 5410 5421 5432 5443 5451 5465 5475 5483 5497 5508 5518 5530 5540 5549 5559 5566 5572 5578 5584 5589 5593 5599 5605 5610 5614 5619 5622 5626 5630
5417 5406 5397 5390 5383 5372 5358 5351 5351 5357 5367 5381 5390 5397 5407 5417 5430 5443 5453 5461 5468 5478 5492 5501 5512 5525 5535 5544 5553 5560 5566 5573 5578 5584 5592 5597 5603 5608 5611 5616 5620 5624 5627
5421 5410 5400 5392 5384 5374 5362 5354 5355 5362 5373 5385 5392 5400 5409 5419 5430 5439 5448 5457 5465 5477 5488 5499 5511 5523 5533 5540 5549 5558 5566 5572 5576 5583 5591 5598 5602 5606 5610 5614 5618 5620 5623
5432 5420 5408 5397 5391 5386 5379 5373 5375 5380 5386 5392 5398 5407 5417 5426 5434 5442 5450 5460 5472 5482 5492 5503 5513 5522 5532 5541 5549 5557 5564 5570 5576 5583 5587 5594 5600 5604 5608 5612 5614 5617 5620
5442 5433 5423 5413 5404 5399 5397 5395 5395 5397 5400 5405 5411 5419 5426 5431 5438 5448 5458 5469 5478 5487 5496 5506 5516 5525 5533 5541 5549 5556 5561 5567 5575 5580 5586 5593 5598 5602 5606 5608 5611 5614 5616
5451 5446 5439 5431 5423 5417 5414 5414 5413 5412 5414 5417 5422 5428 5434 5440 5448 5458 5466 5476 5485 5494 5503 5513 5522 5529 5537 5540 5547 5553 5560 5568 5576 5581 5586 5591 5596 5599 5603 5606 5608 5610 5613
5462 5459 5454 5448 5444 5439 5435 5433 5435 5436 5438 5441 5444 5447 5452 5457 5463 5472 5480 5487 5495 5503 5513 5520 5527 5532 5539 5544 5552 5558 5564 5570 5576 5581 5585 5589 5594 5597 5600 5603 5606 5608 5611